Вернуться в каталог

STARLINK-33611

АктивенСвязьVLEO
NORAD 63279·PAYLOAD·🇺🇸 United States

Запущен Mar 15, 2025 с Cape Canaveral Space Force Station

Loading…

Ближайшие Пролёты (ближайшие 24 часа)

TLE

СвежийSource: CelesTrak SupGP

Эпоха: Sep 15, 2026, 03:09 UTC

1 63279C 25053Q   26258.13173611 -.00045331  00000+0 -16419-2 0  2586
2 63279  43.0027 248.2716 0001496 269.3775 254.8900 15.27600260    12

Отслеживайте STARLINK-33611 в реальном времени с AllMySat

Download on the App Store